Gunnison, CO

2:29 PM MST on January 21, 2018 (GMT -0700)
Gunnison County

Weather History for KGUC - October, 2014

Change the Weather History Date:

Friday, October 31, 2014

  Actual Average Record
Temperature  
Mean Temperature 40 °F -  
Max Temperature 60 °F 47 °F 64 °F (2016)
Min Temperature 19 °F 19 °F 15 °F (2006)
Degree Days  
Heating Degree Days 26    
Moisture  
Dew Point 17 °F    
Average Humidity 46    
Maximum Humidity 80    
Minimum Humidity 20    
Precipitation  
Precipitation 0.00 in - - ()
Sea Level Pressure  
Sea Level Pressure 30.33 in    
Wind  
Wind Speed 2 mph (North)    
Max Wind Speed 10 mph    
Max Gust Speed -    
Visibility 10 miles    
Events      
Averages and records for this station are not official NWS values.
T = Trace of Precipitation, MM = Missing Value Source: NWS Daily Summary

Daily Weather History Graph

Daily Weather History Graph

Search for Another Location

Airport or City:

Trip Planner

Search our weather history database for the weather conditions in past years. The results will help you decide how hot, cold, wet, or windy it might be!

Date:

Astronomy

Oct. 31, 2014 Rise Set
Actual Time 7:33 AM MDT 6:08 PM MDT
Civil Twilight 7:05 AM MDT 6:36 PM MDT
Nautical Twilight 6:34 AM MDT 7:07 PM MDT
Astronomical Twilight 6:03 AM MDT 7:38 PM MDT
Moon 2:20 PM MDT (10/31) 12:30 AM MDT (10/31)
Length of Visible Light 11h 30m
Length of Day
10h 35m
First Quarter, 57% of the Moon is Illuminated
Oct 31
First Quarter
Nov 6
Full
Nov 14
Last Quarter
Nov 22
New
Nov 29
First Quarter

Hourly Weather History & Observations

Time (MDT) Temp. Windchill Dew Point Humidity Pressure Visibility Wind Dir Wind Speed Gust Speed Precip Events Conditions
12:15 AM 30.2 °F 26.7 °F 15.8 °F 55% 30.43 in 10.0 mi NNE 3.5 mph - N/A   Clear
12:35 AM 28.4 °F 24.6 °F 12.2 °F 51% 30.43 in 10.0 mi NE 3.5 mph - N/A   Clear
12:55 AM 28.4 °F - 15.8 °F 59% 30.43 in 10.0 mi Calm Calm - N/A   Clear
1:15 AM 28.4 °F 23.3 °F 14.0 °F 55% 30.43 in 10.0 mi ENE 4.6 mph - N/A   Clear
1:35 AM 28.4 °F 23.3 °F 15.8 °F 59% 30.42 in 10.0 mi ENE 4.6 mph - N/A   Clear
1:55 AM 26.6 °F 22.6 °F 12.2 °F 55% 30.42 in 10.0 mi East 3.5 mph - N/A   Clear
2:15 AM 26.6 °F - 15.8 °F 64% 30.42 in 10.0 mi Calm Calm - N/A   Clear
2:35 AM 23.0 °F - 10.4 °F 59% 30.42 in 10.0 mi Calm Calm - N/A   Clear
2:55 AM 26.6 °F - 14.0 °F 59% 30.42 in 10.0 mi Calm Calm - N/A   Clear
3:15 AM 23.0 °F 18.4 °F 10.4 °F 59% 30.42 in 10.0 mi East 3.5 mph - N/A   Clear
3:35 AM 24.8 °F - 15.8 °F 69% 30.42 in 10.0 mi Calm Calm - N/A   Clear
3:55 AM 23.0 °F - 12.2 °F 63% 30.42 in 10.0 mi Calm Calm - N/A   Clear
4:15 AM 24.8 °F - 15.8 °F 69% 30.41 in 10.0 mi Calm Calm - N/A   Clear
4:35 AM 24.8 °F 20.5 °F 14.0 °F 64% 30.42 in 10.0 mi North 3.5 mph - N/A   Clear
4:55 AM 24.8 °F - 12.2 °F 59% 30.42 in 10.0 mi Calm Calm - N/A   Clear
5:15 AM 21.2 °F - 10.4 °F 63% 30.43 in 10.0 mi Calm Calm - N/A   Clear
5:35 AM 21.2 °F 14.9 °F 15.8 °F 80% 30.43 in 10.0 mi NE 4.6 mph - N/A   Clear
5:55 AM 21.2 °F - 10.4 °F 63% 30.43 in 10.0 mi Calm Calm - N/A   Clear
6:15 AM 23.0 °F - 15.8 °F 74% 30.43 in 10.0 mi Calm Calm - N/A   Clear
6:35 AM 19.4 °F - 8.6 °F 63% 30.43 in 10.0 mi Calm Calm - N/A   Clear
6:55 AM 21.2 °F - 10.4 °F 63% 30.43 in 10.0 mi Calm Calm - N/A   Clear
7:15 AM 21.2 °F - 10.4 °F 63% 30.43 in 10.0 mi Calm Calm - N/A   Clear
7:35 AM 21.2 °F - 12.2 °F 68% 30.43 in 10.0 mi Calm Calm - N/A   Clear
7:55 AM 19.4 °F - 12.2 °F 74% 30.44 in 10.0 mi Calm Calm - N/A   Clear
8:15 AM 19.4 °F 12.8 °F 10.4 °F 68% 30.44 in 10.0 mi ENE 4.6 mph - N/A   Clear
8:35 AM 23.0 °F 17.0 °F 14.0 °F 68% 30.44 in 10.0 mi NE 4.6 mph - N/A   Clear
8:55 AM 24.8 °F - 14.0 °F 64% 30.44 in 10.0 mi Calm Calm - N/A   Clear
9:15 AM 28.4 °F 24.6 °F 15.8 °F 59% 30.44 in 10.0 mi NE 3.5 mph - N/A   Clear
9:35 AM 26.6 °F - 12.2 °F 55% 30.44 in 10.0 mi Calm Calm - N/A   Clear
9:55 AM 30.2 °F - 15.8 °F 55% 30.43 in 10.0 mi Calm Calm - N/A   Clear
10:15 AM 33.8 °F - 17.6 °F 52% 30.43 in 10.0 mi Calm Calm - N/A   Clear
10:35 AM 35.6 °F - 17.6 °F 48% 30.42 in 10.0 mi Calm Calm - N/A   Clear
10:55 AM 39.2 °F - 19.4 °F 45% 30.40 in 10.0 mi Calm Calm - N/A   Clear
11:15 AM 42.8 °F - 21.2 °F 42% 30.40 in 10.0 mi Calm Calm - N/A   Clear
11:35 AM 44.6 °F - 21.2 °F 39% 30.39 in 10.0 mi Calm Calm - N/A   Clear
11:55 AM 48.2 °F - 21.2 °F 34% 30.37 in 10.0 mi Calm Calm - N/A   Clear
12:15 PM 50.0 °F - 21.2 °F 32% 30.35 in 10.0 mi Calm Calm - N/A   Clear
12:35 PM 51.8 °F - 21.2 °F 30% 30.33 in 10.0 mi Calm Calm - N/A   Clear
12:55 PM 53.6 °F - 21.2 °F 28% 30.31 in 10.0 mi Calm Calm - N/A   Clear
1:15 PM 55.4 °F - 21.2 °F 26% 30.29 in 10.0 mi Calm Calm - N/A   Clear
1:35 PM 57.2 °F - 19.4 °F 23% 30.28 in 10.0 mi NW 3.5 mph - N/A   Clear
1:55 PM 57.2 °F - 19.4 °F 23% 30.27 in 10.0 mi WSW 4.6 mph - N/A   Clear
2:15 PM 60.8 °F - 19.4 °F 20% 30.26 in 10.0 mi Calm Calm - N/A   Clear
2:35 PM 60.8 °F - 19.4 °F 20% 30.25 in 10.0 mi South 4.6 mph - N/A   Clear
2:55 PM 59.0 °F - 19.4 °F 22% 30.24 in 10.0 mi WSW 5.8 mph - N/A   Clear
3:15 PM 57.2 °F - 17.6 °F 21% 30.24 in 10.0 mi WSW 8.1 mph - N/A   Clear
3:35 PM 60.8 °F - 19.4 °F 20% 30.23 in 10.0 mi West 3.5 mph - N/A   Clear
3:55 PM 60.8 °F - 19.4 °F 20% 30.23 in 10.0 mi Calm Calm - N/A   Clear
4:15 PM 60.8 °F - 19.4 °F 20% 30.23 in 10.0 mi WSW 3.5 mph - N/A   Clear
4:35 PM 60.8 °F - 19.4 °F 20% 30.22 in 10.0 mi West 3.5 mph - N/A   Clear
4:55 PM 60.8 °F - 19.4 °F 20% 30.22 in 10.0 mi Calm Calm - N/A   Clear
5:15 PM 60.8 °F - 19.4 °F 20% 30.21 in 10.0 mi WSW 3.5 mph - N/A   Clear
5:35 PM 60.8 °F - 19.4 °F 20% 30.21 in 10.0 mi SW 3.5 mph - N/A   Clear
5:55 PM 59.0 °F - 19.4 °F 22% 30.21 in 10.0 mi South 3.5 mph - N/A   Clear
6:15 PM 53.6 °F - 21.2 °F 28% 30.21 in 8.0 mi SSE 3.5 mph - N/A   Clear
6:35 PM 53.6 °F - 21.2 °F 28% 30.21 in 10.0 mi Calm Calm - N/A   Clear
6:55 PM 51.8 °F - 19.4 °F 28% 30.21 in 10.0 mi East 5.8 mph - N/A   Clear
7:15 PM 50.0 °F - 17.6 °F 28% 30.22 in 10.0 mi North 3.5 mph - N/A   Clear
7:35 PM 48.2 °F - 19.4 °F 32% 30.23 in 10.0 mi North 5.8 mph - N/A   Clear
7:55 PM 46.4 °F 42.9 °F 17.6 °F 32% 30.23 in 10.0 mi NNW 6.9 mph - N/A   Clear
8:15 PM 42.8 °F 37.0 °F 17.6 °F 36% 30.23 in 10.0 mi NNW 10.4 mph - N/A   Clear
8:35 PM 42.8 °F 38.6 °F 19.4 °F 39% 30.24 in 10.0 mi NNW 6.9 mph - N/A   Clear
8:55 PM 42.8 °F 38.0 °F 19.4 °F 39% 30.23 in 10.0 mi North 8.1 mph - N/A   Clear
9:15 PM 41.0 °F 35.8 °F 19.4 °F 42% 30.24 in 10.0 mi North 8.1 mph - N/A   Clear
9:35 PM 39.2 °F 34.2 °F 19.4 °F 45% 30.24 in 10.0 mi North 6.9 mph - N/A   Clear
9:55 PM 37.4 °F 32.8 °F 19.4 °F 48% 30.24 in 10.0 mi North 5.8 mph - N/A   Clear
10:15 PM 37.4 °F 32.8 °F 19.4 °F 48% 30.25 in 10.0 mi North 5.8 mph - N/A   Clear
10:35 PM 35.6 °F 30.7 °F 19.4 °F 52% 30.25 in 10.0 mi North 5.8 mph - N/A   Clear
10:55 PM 35.6 °F 31.7 °F 19.4 °F 52% 30.25 in 10.0 mi NE 4.6 mph - N/A   Clear
11:15 PM 35.6 °F 32.8 °F 19.4 °F 52% 30.25 in 10.0 mi NE 3.5 mph - N/A   Clear
11:35 PM 35.6 °F 30.7 °F 19.4 °F 52% 30.25 in 10.0 mi NNE 5.8 mph - N/A   Partly Cloudy
11:55 PM 35.6 °F 28.6 °F 21.2 °F 56% 30.25 in 10.0 mi NNE 9.2 mph - N/A   Scattered Clouds